| time (UTC) | temp F | wind direction | speed MPH | gust MPH | rain 1hr in | rain 24hr in | rain mn in | humidity % | barometer mb |
| 20260502220221 | 70 | 2 | 4.0 | 5.0 | 0.00 | 0.37 | 0.37 | 44 | 1015.5 |
| 20260502215718 | 70 | 0 | 7.0 | 8.0 | 0.00 | 0.37 | 0.37 | 42 | 1015.3 |
| 20260502215215 | 70 | 104 | 3.0 | 5.0 | 0.00 | 0.37 | 0.37 | 43 | 1015.4 |
| 20260502214712 | 70 | 347 | 5.0 | 5.0 | 0.00 | 0.37 | 0.37 | 44 | 1015.3 |
| 20260502214210 | 70 | 78 | 3.0 | 3.0 | 0.00 | 0.37 | 0.37 | 43 | 1015.2 |
| 20260502213707 | 70 | 297 | 3.0 | 6.0 | 0.00 | 0.37 | 0.37 | 43 | 1015.2 |
| 20260502213204 | 70 | 29 | 2.0 | 3.0 | 0.00 | 0.37 | 0.37 | 44 | 1015.5 |
| 20260502212702 | 70 | 329 | 3.0 | 3.0 | 0.00 | 0.37 | 0.37 | 43 | 1015.4 |
| 20260502212200 | 70 | 134 | 4.0 | 8.0 | 0.00 | 0.37 | 0.37 | 44 | 1015.3 |
| 20260502211656 | 70 | 334 | 9.0 | 13.0 | 0.00 | 0.37 | 0.37 | 43 | 1015.5 |
| 20260502211153 | 69 | 80 | 4.0 | 6.0 | 0.00 | 0.37 | 0.37 | 44 | 1015.5 |
| 20260502210650 | 69 | 334 | 2.0 | 3.0 | 0.00 | 0.37 | 0.37 | 43 | 1015.6 |
| 20260502210147 | 69 | 343 | 3.0 | 6.0 | 0.00 | 0.37 | 0.37 | 45 | 1015.6 |
| 20260502205644 | 70 | 342 | 5.0 | 6.0 | 0.00 | 0.37 | 0.37 | 44 | 1015.5 |
| 20260502205141 | 69 | 43 | 2.0 | 3.0 | 0.00 | 0.37 | 0.37 | 42 | 1015.8 |
| 20260502204638 | 69 | 283 | 5.0 | 9.0 | 0.00 | 0.37 | 0.37 | 44 | 1015.8 |
| 20260502204135 | 70 | 6 | 3.0 | 3.0 | 0.00 | 0.37 | 0.37 | 42 | 1015.6 |
| 20260502203632 | 70 | 356 | 4.0 | 5.0 | 0.00 | 0.37 | 0.37 | 43 | 1015.7 |
| 20260502203131 | 70 | 329 | 8.0 | 9.0 | 0.00 | 0.37 | 0.37 | 41 | 1016.0 |
| 20260502202625 | 70 | 353 | 5.0 | 7.0 | 0.00 | 0.37 | 0.37 | 45 | 1015.8 |
| 20260502202123 | 70 | 350 | 3.0 | 7.0 | 0.00 | 0.37 | 0.37 | 43 | 1015.9 |
| 20260502201619 | 70 | 56 | 4.0 | 6.0 | 0.00 | 0.37 | 0.37 | 43 | 1015.9 |
| 20260502201116 | 69 | 341 | 6.0 | 7.0 | 0.00 | 0.37 | 0.37 | 44 | 1015.8 |
| 20260502200612 | 70 | 79 | 4.0 | 5.0 | 0.00 | 0.37 | 0.37 | 42 | 1016.0 |
| 20260502200110 | 70 | 355 | 9.0 | 10.0 | 0.00 | 0.37 | 0.37 | 43 | 1016.3 |
| 20260502195608 | 70 | 344 | 4.0 | 7.0 | 0.00 | 0.37 | 0.37 | 44 | 1016.2 |
| 20260502195103 | 70 | 339 | 3.0 | 3.0 | 0.00 | 0.37 | 0.37 | 42 | 1016.2 |
| 20260502194600 | 71 | 359 | 6.0 | 10.0 | 0.00 | 0.37 | 0.37 | 43 | 1016.3 |
| 20260502194056 | 70 | 57 | 2.0 | 2.0 | 0.00 | 0.37 | 0.37 | 43 | 1016.2 |
| 20260502193554 | 70 | 346 | 5.0 | 7.0 | 0.00 | 0.37 | 0.37 | 44 | 1016.3 |
| 20260502193050 | 71 | 24 | 2.0 | 3.0 | 0.00 | 0.37 | 0.37 | 44 | 1016.3 |
| 20260502192546 | 70 | 334 | 5.0 | 6.0 | 0.00 | 0.37 | 0.37 | 45 | 1016.1 |
| 20260502192043 | 70 | 335 | 4.0 | 7.0 | 0.00 | 0.37 | 0.37 | 43 | 1016.2 |
| 20260502191540 | 70 | 294 | 3.0 | 5.0 | 0.00 | 0.37 | 0.37 | 46 | 1016.2 |
| 20260502191038 | 69 | 67 | 2.0 | 3.0 | 0.00 | 0.37 | 0.37 | 44 | 1016.1 |
| 20260502190535 | 70 | 87 | 3.0 | 6.0 | 0.00 | 0.37 | 0.37 | 45 | 1016.2 |
| 20260502190032 | 69 | 12 | 4.0 | 5.0 | 0.00 | 0.37 | 0.37 | 45 | 1016.1 |
| 20260502185527 | 70 | 339 | 3.0 | 5.0 | 0.00 | 0.37 | 0.37 | 43 | 1016.4 |
| 20260502185024 | 69 | 80 | 5.0 | 7.0 | 0.00 | 0.37 | 0.37 | 46 | 1016.2 |
| 20260502184520 | 70 | 44 | 3.0 | 5.0 | 0.00 | 0.37 | 0.37 | 44 | 1016.4 |
| 20260502184016 | 69 | 352 | 3.0 | 5.0 | 0.00 | 0.37 | 0.37 | 46 | 1016.4 |
| 20260502183512 | 69 | 9 | 4.0 | 5.0 | 0.00 | 0.37 | 0.37 | 45 | 1016.4 |
| 20260502183009 | 68 | 18 | 3.0 | 5.0 | 0.00 | 0.37 | 0.37 | 43 | 1016.5 |
| 20260502182503 | 69 | 352 | 5.0 | 7.0 | 0.00 | 0.37 | 0.37 | 47 | 1016.5 |
| 20260502182000 | 68 | 351 | 9.0 | 10.0 | 0.00 | 0.37 | 0.37 | 45 | 1016.8 |
| 20260502181458 | 68 | 71 | 4.0 | 6.0 | 0.00 | 0.37 | 0.37 | 46 | 1016.6 |
| 20260502180957 | 68 | 353 | 3.0 | 5.0 | 0.00 | 0.37 | 0.37 | 49 | 1016.6 |
| 20260502180453 | 68 | 297 | 5.0 | 7.0 | 0.00 | 0.37 | 0.37 | 48 | 1016.5 |
| 20260502170412 | 66 | 21 | 3.0 | 5.0 | 0.00 | 0.37 | 0.37 | 57 | 1017.1 |
| 20260502163855 | 66 | 10 | 4.0 | 8.0 | 0.00 | 0.37 | 0.37 | 63 | 1017.0 |
| 20260502163352 | 65 | 160 | 3.0 | 5.0 | 0.00 | 0.37 | 0.37 | 60 | 1017.2 |
| 20260502162849 | 66 | 79 | 4.0 | 6.0 | 0.00 | 0.37 | 0.37 | 61 | 1017.0 |
| 20260502162346 | 66 | 108 | 3.0 | 3.0 | 0.00 | 0.37 | 0.37 | 61 | 1017.1 |
| 20260502161843 | 66 | 34 | 1.0 | 2.0 | 0.00 | 0.37 | 0.37 | 62 | 1016.9 |
| 20260502161339 | 65 | 346 | 6.0 | 7.0 | 0.00 | 0.37 | 0.37 | 66 | 1016.7 |
| 20260502160838 | 65 | 93 | 3.0 | 5.0 | 0.00 | 0.37 | 0.37 | 63 | 1016.9 |
| 20260502160336 | 64 | 118 | 3.0 | 6.0 | 0.00 | 0.37 | 0.37 | 65 | 1016.8 |
| 20260502152311 | 64 | 326 | 4.0 | 6.0 | 0.00 | 0.37 | 0.37 | 72 | 1016.6 |
| 20260502151808 | 63 | 330 | 6.0 | 7.0 | 0.00 | 0.37 | 0.37 | 75 | 1016.7 |
| 20260502151305 | 63 | 58 | 1.0 | 2.0 | 0.00 | 0.37 | 0.37 | 78 | 1016.5 |
| 20260502150803 | 63 | 42 | 3.0 | 3.0 | 0.00 | 0.37 | 0.37 | 78 | 1016.3 |
| 20260502150259 | 62 | 22 | 2.0 | 3.0 | 0.00 | 0.37 | 0.37 | 78 | 1016.3 |
| 20260502130647 | 55 | 26 | 2.0 | 2.0 | 0.00 | 0.37 | 0.37 | 99 | 1015.1 |
| 20260502130145 | 55 | 355 | 1.0 | 2.0 | 0.00 | 0.37 | 0.37 | 99 | 1015.4 |
| 20260502123630 | 54 | 359 | 1.0 | 1.0 | 0.00 | 0.37 | 0.37 | 99 | 1015.2 |
| 20260502123127 | 54 | 62 | 0.0 | 1.0 | 0.00 | 0.37 | 0.37 | 99 | 1015.3 |
| 20260502122624 | 53 | 27 | 1.0 | 1.0 | 0.00 | 0.37 | 0.37 | 99 | 1015.0 |
| 20260502122120 | 53 | 332 | 1.0 | 2.0 | 0.00 | 0.37 | 0.37 | 99 | 1014.9 |
| 20260502121619 | 53 | 337 | 2.0 | 2.0 | 0.00 | 0.37 | 0.37 | 99 | 1014.7 |
| 20260502121116 | 53 | 359 | 2.0 | 2.0 | 0.00 | 0.37 | 0.37 | 99 | 1014.9 |
| 20260502120611 | 53 | 3 | 2.0 | 2.0 | 0.00 | 0.37 | 0.37 | 99 | 1014.9 |
| 20260502120109 | 53 | 357 | 3.0 | 3.0 | 0.00 | 0.37 | 0.37 | 99 | 1014.6 |
| 20260502115607 | 53 | 346 | 2.0 | 2.0 | 0.00 | 0.37 | 0.37 | 99 | 1014.5 |
| 20260502115102 | 53 | 0 | 1.0 | 1.0 | 0.00 | 0.37 | 0.37 | 99 | 1014.3 |
| 20260502114559 | 53 | 347 | 3.0 | 3.0 | 0.00 | 0.37 | 0.37 | 99 | 1014.0 |
| 20260502114056 | 53 | 32 | 0.0 | 1.0 | 0.00 | 0.37 | 0.37 | 99 | 1014.0 |
| 20260502113553 | 53 | 358 | 3.0 | 3.0 | 0.00 | 0.37 | 0.37 | 99 | 1014.3 |
| 20260502113052 | 53 | 357 | 0.0 | 1.0 | 0.00 | 0.37 | 0.37 | 99 | 1014.0 |
| 20260502112549 | 52 | 19 | 0.0 | 0.0 | 0.00 | 0.37 | 0.37 | 99 | 1014.0 |
| 20260502112047 | 52 | 334 | 1.0 | 1.0 | 0.00 | 0.37 | 0.37 | 99 | 1013.8 |
| 20260502111544 | 52 | 13 | 0.0 | 0.0 | 0.00 | 0.37 | 0.37 | 99 | 1013.9 |
| 20260502111041 | 52 | 350 | 1.0 | 1.0 | 0.00 | 0.37 | 0.37 | 99 | 1013.5 |
| 20260502110538 | 52 | 334 | 1.0 | 1.0 | 0.00 | 0.37 | 0.37 | 99 | 1013.4 |
| 20260502110036 | 52 | 12 | 0.0 | 1.0 | 0.00 | 0.37 | 0.37 | 99 | 1013.5 |
| 20260502105533 | 52 | 6 | 1.0 | 1.0 | 0.00 | 0.37 | 0.37 | 99 | 1013.4 |
| 20260502105031 | 52 | 58 | 0.0 | 0.0 | 0.00 | 0.37 | 0.37 | 99 | 1013.4 |
| 20260502104527 | 52 | 49 | 0.0 | 0.0 | 0.00 | 0.37 | 0.37 | 99 | 1013.6 |
| 20260502104025 | 52 | 49 | 0.0 | 0.0 | 0.00 | 0.37 | 0.37 | 99 | 1013.8 |
| 20260502103523 | 52 | 37 | 0.0 | 0.0 | 0.00 | 0.37 | 0.37 | 99 | 1013.8 |
| 20260502103021 | 52 | 66 | 0.0 | 0.0 | 0.00 | 0.37 | 0.37 | 99 | 1013.6 |
| 20260502102517 | 52 | 65 | 0.0 | 0.0 | 0.00 | 0.37 | 0.37 | 99 | 1013.5 |
| 20260502102014 | 52 | 43 | 0.0 | 0.0 | 0.00 | 0.37 | 0.37 | 99 | 1013.3 |
| 20260502101512 | 52 | 59 | 0.0 | 0.0 | 0.00 | 0.37 | 0.37 | 99 | 1013.4 |
| 20260502101010 | 52 | 52 | 0.0 | 0.0 | 0.00 | 0.37 | 0.37 | 99 | 1013.2 |
| 20260502100508 | 52 | 0 | 0.0 | 1.0 | 0.07 | 0.37 | 0.37 | 99 | 1013.3 |
| 20260502091442 | 52 | 354 | 2.0 | 2.0 | 0.19 | 0.31 | 0.31 | 99 | 1013.4 |
| 20260502090940 | 52 | 26 | 2.0 | 2.0 | 0.17 | 0.30 | 0.30 | 99 | 1012.9 |
| 20260502090437 | 52 | 112 | 2.0 | 3.0 | 0.19 | 0.28 | 0.28 | 99 | 1013.5 |
| 20260502071331 | 52 | 12 | 2.0 | 2.0 | 0.24 | 0.08 | 0.08 | 99 | 1014.6 |
| 20260502070829 | 52 | 1 | 1.0 | 1.0 | 0.17 | 0.06 | 0.06 | 99 | 1014.3 |
| 20260502070326 | 52 | 9 | 4.0 | 5.0 | 0.17 | 0.04 | 0.04 | 99 | 1013.6 |
| 20260502065825 | 52 | 340 | 4.0 | 5.0 | 0.12 | 0.03 | 0.03 | 99 | 1013.9 |
| 20260502065323 | 52 | 50 | 0.0 | 1.0 | 0.00 | 0.01 | 0.01 | 99 | 1014.4 |
| 20260502064821 | 52 | 359 | 1.0 | 2.0 | 0.00 | 0.01 | 0.01 | 99 | 1014.3 |
| 20260502064319 | 52 | 74 | 2.0 | 2.0 | 0.00 | 0.01 | 0.01 | 99 | 1014.0 |
| 20260502063816 | 51 | 355 | 3.0 | 3.0 | 0.00 | 0.01 | 0.01 | 99 | 1013.9 |
| 20260502063314 | 51 | 10 | 1.0 | 2.0 | 0.07 | 0.01 | 0.01 | 99 | 1013.9 |
| 20260502062810 | 51 | 48 | 1.0 | 2.0 | 0.07 | 0.01 | 0.01 | 99 | 1013.8 |
| 20260502062308 | 51 | 346 | 2.0 | 2.0 | 0.00 | 0.00 | 0.00 | 99 | 1014.0 |
| 20260502061806 | 51 | 11 | 1.0 | 1.0 | 0.00 | 0.00 | 0.00 | 99 | 1013.6 |
| 20260502061304 | 51 | 11 | 3.0 | 3.0 | 0.00 | 0.00 | 0.00 | 99 | 1014.1 |
| 20260502060759 | 51 | 336 | 4.0 | 5.0 | 0.00 | 0.00 | 0.00 | 99 | 1014.1 |
| 20260502060255 | 51 | 339 | 2.0 | 3.0 | 0.00 | 0.00 | 0.00 | 99 | 1014.2 |
| 20260502055753 | 51 | 318 | 3.0 | 5.0 | 0.00 | 0.00 | 0.00 | 99 | 1013.9 |
| 20260502055250 | 51 | 316 | 0.0 | 1.0 | 0.00 | 0.00 | 0.00 | 99 | 1014.1 |
| 20260502054749 | 51 | 25 | 0.0 | 1.0 | 0.00 | 0.00 | 0.00 | 99 | 1014.1 |
| 20260502054246 | 51 | 353 | 2.0 | 2.0 | 0.00 | 0.00 | 0.00 | 99 | 1014.0 |
| 20260502053744 | 51 | 97 | 0.0 | 1.0 | 0.00 | 0.00 | 0.00 | 99 | 1013.7 |
| 20260502053241 | 51 | 73 | 1.0 | 1.0 | 0.00 | 0.00 | 0.00 | 99 | 1013.5 |
| 20260502052739 | 51 | 326 | 5.0 | 6.0 | 0.00 | 0.00 | 0.00 | 99 | 1013.9 |
| 20260502052237 | 51 | 40 | 2.0 | 3.0 | 0.00 | 0.00 | 0.00 | 99 | 1013.8 |
| 20260502051735 | 51 | 36 | 1.0 | 1.0 | 0.00 | 0.00 | 0.00 | 99 | 1013.8 |
| 20260502051233 | 51 | 20 | 0.0 | 1.0 | 0.00 | 0.00 | 0.00 | 99 | 1013.6 |
| 20260502050729 | 51 | 30 | 1.0 | 2.0 | 0.00 | 0.00 | 0.00 | 99 | 1013.5 |
| 20260502050225 | 51 | 338 | 4.0 | 6.0 | 0.00 | 0.00 | 0.00 | 99 | 1013.8 |
| 20260502045722 | 51 | 335 | 5.0 | 6.0 | 0.00 | 1.16 | 1.16 | 99 | 1013.9 |
| 20260502045219 | 51 | 308 | 4.0 | 6.0 | 0.00 | 1.16 | 1.16 | 99 | 1014.0 |
| 20260502044716 | 51 | 3 | 2.0 | 3.0 | 0.00 | 1.16 | 1.16 | 99 | 1013.8 |
| 20260502044212 | 51 | 127 | 3.0 | 3.0 | 0.07 | 1.16 | 1.16 | 99 | 1013.6 |
| 20260502043710 | 51 | 351 | 5.0 | 6.0 | 0.07 | 1.16 | 1.16 | 99 | 1013.7 |
| 20260502043207 | 51 | 345 | 2.0 | 2.0 | 0.00 | 1.15 | 1.15 | 99 | 1013.8 |
| 20260502042706 | 51 | 9 | 3.0 | 3.0 | 0.00 | 1.15 | 1.15 | 99 | 1013.6 |
| 20260502042204 | 51 | 359 | 1.0 | 1.0 | 0.00 | 1.15 | 1.15 | 99 | 1013.3 |
| 20260502041701 | 51 | 2 | 3.0 | 3.0 | 0.00 | 1.15 | 1.15 | 99 | 1013.3 |
| 20260502041158 | 51 | 359 | 3.0 | 3.0 | 0.00 | 1.15 | 1.15 | 99 | 1013.3 |
| 20260502040655 | 51 | 56 | 3.0 | 5.0 | 0.00 | 1.15 | 1.15 | 99 | 1013.8 |
| 20260502040152 | 51 | 349 | 5.0 | 7.0 | 0.00 | 1.15 | 1.15 | 99 | 1014.1 |
| 20260502035648 | 51 | 341 | 3.0 | 3.0 | 0.05 | 1.15 | 1.15 | 99 | 1014.0 |
| 20260502035145 | 51 | 337 | 4.0 | 5.0 | 0.05 | 1.15 | 1.15 | 99 | 1014.1 |
| 20260502034643 | 51 | 351 | 2.0 | 2.0 | 0.07 | 1.14 | 1.14 | 99 | 1014.3 |
| 20260502034142 | 51 | 5 | 6.0 | 7.0 | 0.07 | 1.14 | 1.14 | 99 | 1014.5 |
| 20260502033639 | 51 | 47 | 1.0 | 1.0 | 0.05 | 1.13 | 1.13 | 99 | 1014.6 |
| 20260502033137 | 51 | 25 | 1.0 | 1.0 | 0.05 | 1.13 | 1.13 | 99 | 1015.0 |
| 20260502032632 | 51 | 24 | 0.0 | 0.0 | 0.00 | 1.12 | 1.12 | 99 | 1015.2 |
| 20260502032129 | 51 | 78 | 1.0 | 1.0 | 0.07 | 1.12 | 1.12 | 99 | 1015.1 |
| 20260502031627 | 51 | 356 | 2.0 | 2.0 | 0.07 | 1.12 | 1.12 | 99 | 1015.0 |
| 20260502031124 | 51 | 61 | 1.0 | 2.0 | 0.00 | 1.11 | 1.11 | 99 | 1015.2 |
| 20260502030623 | 51 | 4 | 3.0 | 3.0 | 0.05 | 1.11 | 1.11 | 99 | 1015.0 |
| 20260502030121 | 51 | 348 | 2.0 | 2.0 | 0.12 | 1.11 | 1.11 | 99 | 1014.7 |
| 20260502025618 | 51 | 348 | 3.0 | 5.0 | 0.07 | 1.10 | 1.10 | 99 | 1014.5 |
| 20260502025116 | 51 | 29 | 1.0 | 2.0 | 0.05 | 1.09 | 1.09 | 99 | 1014.3 |
| 20260502024613 | 51 | 347 | 1.0 | 1.0 | 0.05 | 1.09 | 1.09 | 99 | 1014.5 |
| 20260502024111 | 51 | 2 | 3.0 | 3.0 | 0.00 | 1.08 | 1.08 | 99 | 1014.3 |
| 20260502023609 | 51 | 350 | 2.0 | 2.0 | 0.00 | 1.08 | 1.08 | 99 | 1014.0 |
| 20260502023106 | 51 | 0 | 1.0 | 2.0 | 0.07 | 1.08 | 1.08 | 99 | 1014.0 |
| 20260502022603 | 51 | 12 | 0.0 | 1.0 | 0.07 | 1.08 | 1.08 | 99 | 1013.7 |
| 20260502022100 | 51 | 39 | 1.0 | 2.0 | 0.00 | 1.07 | 1.07 | 99 | 1013.3 |
| 20260502021557 | 51 | 54 | 2.0 | 5.0 | 0.00 | 1.07 | 1.07 | 99 | 1013.4 |
| 20260502021054 | 51 | 342 | 3.0 | 3.0 | 0.00 | 1.07 | 1.07 | 99 | 1013.4 |
| 20260502020551 | 50 | 14 | 2.0 | 2.0 | 0.00 | 1.07 | 1.07 | 99 | 1013.7 |
| 20260502020048 | 50 | 50 | 0.0 | 1.0 | 0.00 | 1.07 | 1.07 | 99 | 1013.8 |
| 20260502015546 | 50 | 33 | 0.0 | 0.0 | 0.00 | 1.07 | 1.07 | 99 | 1013.8 |
| 20260502015042 | 50 | 34 | 1.0 | 2.0 | 0.00 | 1.07 | 1.07 | 99 | 1013.3 |
| 20260502014539 | 50 | 25 | 1.0 | 2.0 | 0.05 | 1.07 | 1.07 | 99 | 1013.3 |
| 20260502014037 | 50 | 64 | 2.0 | 2.0 | 0.12 | 1.07 | 1.07 | 99 | 1013.5 |
| 20260502013532 | 51 | 353 | 2.0 | 2.0 | 0.14 | 1.06 | 1.06 | 99 | 1013.3 |
| 20260502013028 | 51 | 343 | 1.0 | 1.0 | 0.19 | 1.05 | 1.05 | 99 | 1013.5 |
| 20260502012526 | 50 | 10 | 1.0 | 1.0 | 0.17 | 1.04 | 1.04 | 99 | 1013.8 |
| 20260502012023 | 50 | 59 | 0.0 | 0.0 | 0.12 | 1.02 | 1.02 | 99 | 1013.7 |
| 20260502011520 | 50 | 91 | 1.0 | 2.0 | 0.07 | 1.01 | 1.01 | 99 | 1013.3 |
| 20260502011016 | 50 | 55 | 0.0 | 1.0 | 0.00 | 1.00 | 1.00 | 99 | 1012.9 |
| 20260502010514 | 50 | 75 | 3.0 | 3.0 | 0.00 | 1.00 | 1.00 | 99 | 1012.5 |
| 20260502010010 | 50 | 14 | 5.0 | 6.0 | 0.05 | 1.00 | 1.00 | 99 | 1011.8 |
| 20260502005508 | 51 | 353 | 3.0 | 5.0 | 0.05 | 1.00 | 1.00 | 99 | 1012.1 |
| 20260502005005 | 51 | 69 | 3.0 | 5.0 | 0.00 | 0.99 | 0.99 | 99 | 1012.0 |
| 20260502004501 | 51 | 345 | 1.0 | 2.0 | 0.00 | 0.99 | 0.99 | 99 | 1012.2 |
| 20260502003958 | 51 | 18 | 2.0 | 2.0 | 0.07 | 0.99 | 0.99 | 99 | 1012.2 |
| 20260502003455 | 51 | 28 | 1.0 | 2.0 | 0.07 | 0.99 | 0.99 | 99 | 1011.8 |
| 20260502002951 | 51 | 342 | 3.0 | 3.0 | 0.05 | 0.98 | 0.98 | 99 | 1011.8 |
| 20260502002449 | 51 | 84 | 3.0 | 6.0 | 0.12 | 0.98 | 0.98 | 99 | 1012.2 |
| 20260502001946 | 51 | 35 | 0.0 | 1.0 | 0.12 | 0.97 | 0.97 | 99 | 1013.0 |
| 20260502001443 | 51 | 9 | 1.0 | 2.0 | 0.12 | 0.96 | 0.96 | 99 | 1013.0 |
| 20260502000941 | 51 | 15 | 0.0 | 1.0 | 0.07 | 0.95 | 0.95 | 99 | 1012.8 |
| 20260502000440 | 51 | 344 | 4.0 | 6.0 | 0.05 | 0.94 | 0.94 | 99 | 1012.7 |
| 20260501235935 | 51 | 354 | 2.0 | 2.0 | 0.12 | 0.94 | 0.94 | 99 | 1012.9 |
| 20260501235431 | 51 | 34 | 2.0 | 2.0 | 0.14 | 0.93 | 0.93 | 99 | 1012.7 |
| 20260501234926 | 51 | 72 | 2.0 | 3.0 | 0.12 | 0.92 | 0.92 | 99 | 1012.7 |
| 20260501234423 | 51 | 27 | 1.0 | 2.0 | 0.05 | 0.91 | 0.91 | 99 | 1012.8 |
| 20260501233922 | 51 | 354 | 4.0 | 6.0 | 0.07 | 0.90 | 0.90 | 99 | 1012.5 |
| 20260501233419 | 51 | 335 | 1.0 | 2.0 | 0.07 | 0.90 | 0.90 | 99 | 1012.7 |
| 20260501232914 | 51 | 48 | 1.0 | 2.0 | 0.05 | 0.89 | 0.89 | 99 | 1012.7 |
| 20260501232412 | 51 | 87 | 3.0 | 3.0 | 0.12 | 0.89 | 0.89 | 99 | 1012.8 |
| 20260501231909 | 51 | 52 | 1.0 | 2.0 | 0.12 | 0.88 | 0.88 | 99 | 1012.6 |
| 20260501231408 | 51 | 41 | 1.0 | 1.0 | 0.05 | 0.87 | 0.87 | 99 | 1013.0 |
| 20260501230905 | 51 | 66 | 0.0 | 0.0 | 0.07 | 0.86 | 0.86 | 99 | 1013.0 |
| 20260501230404 | 51 | 55 | 3.0 | 3.0 | 0.12 | 0.86 | 0.86 | 99 | 1012.9 |
| 20260501225901 | 51 | 106 | 2.0 | 2.0 | 0.05 | 0.85 | 0.85 | 99 | 1012.8 |
| 20260501225359 | 51 | 339 | 3.0 | 3.0 | 0.07 | 0.84 | 0.84 | 99 | 1013.1 |
| 20260501224854 | 51 | 60 | 5.0 | 7.0 | 0.07 | 0.84 | 0.84 | 99 | 1012.9 |
| 20260501224352 | 51 | 346 | 1.0 | 5.0 | 0.05 | 0.83 | 0.83 | 99 | 1013.5 |
| 20260501223848 | 51 | 350 | 3.0 | 3.0 | 0.12 | 0.83 | 0.83 | 99 | 1013.5 |
| 20260501223344 | 51 | 337 | 1.0 | 1.0 | 0.12 | 0.82 | 0.82 | 99 | 1013.0 |
| 20260501222840 | 51 | 316 | 3.0 | 5.0 | 0.19 | 0.81 | 0.81 | 99 | 1012.8 |
| 20260501222338 | 51 | 345 | 3.0 | 3.0 | 0.19 | 0.80 | 0.80 | 99 | 1012.8 |
| 20260501221834 | 51 | 336 | 1.0 | 2.0 | 0.17 | 0.78 | 0.78 | 99 | 1012.8 |
| 20260501221332 | 51 | 345 | 3.0 | 5.0 | 0.24 | 0.77 | 0.77 | 99 | 1012.9 |
| 20260501220830 | 51 | 274 | 3.0 | 5.0 | 0.19 | 0.75 | 0.75 | 99 | 1012.8 |